Location: Lafayette
(41.0992°N, 81.9351°W)
Time: 08:35:53
(UTC+00:00)

Daily predictions for brighter satellites

Satellite Brightness Start Highest point End
(mag) Time Altitude Azimuth Time Altitude Azimuth Time Altitude Azimuth
STARLINK 1044 4.3 12:02:30 10° SSW 12:05:57 49° SE 12:09:26 10° ENE
Cosmos 2366 rocket 4.1 12:00:26 10° NNW 12:06:40 60° W 12:12:53 10° S
USA 238 DEB 4.4 12:01:44 10° NW 12:08:24 40° WSW 12:15:13 10° S
USA 238 4.4 12:01:50 10° NW 12:08:31 41° WSW 12:15:21 10° S
Abrixas rocket 2.7 12:07:11 10° NW 12:10:07 44° NNE 12:13:02 10° E
NOAA 12 4.3 12:08:51 10° NNE 12:14:10 82° ESE 12:19:29 10° SSW
AQUARIUS 4.2 12:09:44 10° N 12:14:11 62° WNW 12:18:36 10° SSW
STARLINK-34 4.3 12:10:58 10° W 12:14:40 34° NNW 12:18:23 10° NE
STARLINK 1040 2.8 12:12:39 10° SW 12:15:29 78° SE 12:18:21 10° NE
IRS-1C Rocket 4.1 12:11:25 10° N 12:16:41 71° WNW 12:21:55 10° SSW
STARLINK-24 4.3 12:13:06 10° W 12:16:47 34° NNW 12:20:29 10° NE
STARLINK-81 4.3 12:14:04 10° W 12:17:48 35° NNW 12:21:32 10° NE
CORIOLIS 4.1 12:12:44 10° N 12:18:05 77° WNW 12:23:26 10° SSW
STARLINK-54 4.4 12:16:01 10° W 12:19:40 33° NNW 12:23:20 10° NE
Cosmos 2228 4.4 12:17:38 10° WSW 12:20:50 19° WNW 12:24:02 10° NNW
Cosmos 2058 4.4 12:17:15 10° N 12:21:14 40° ENE 12:25:13 10° SSE
Cosmos 1812 Rocket 4.3 22:51:14 10° NNE 22:55:16 32° ENE 22:59:17 10° SE
Cosmos 1242 Rocket 2.4 22:56:27 10° S 22:59:54 69° E 23:03:26 10° NNE
Cosmos 2298 Rocket 4.5 22:55:07 10° SSW 23:00:22 67° WNW 23:05:41 10° NNE
YAOGAN 1 3.9 22:58:51 10° ESE 23:01:55 19° ENE 23:04:59 10° NNE
Cosmos 1340 Rocket 3.4 22:59:38 10° N 23:03:14 33° ENE 23:06:52 10° SE
Cosmos 1271 Rocket 2.8 23:00:59 10° SSW 23:04:42 77° W 23:08:28 10° N
Cosmos 494 Rocket 4.5 23:00:17 10° N 23:05:00 36° ENE 23:09:42 10° SE
Cosmos 1626 2.1 23:01:32 10° S 23:05:11 64° E 23:08:52 10° NNE
SL-14 R/B 3.2 23:02:43 10° S 23:06:44 77° E 23:10:43 10° N
YAOGAN 6 3.1 23:03:46 10° SE 23:07:12 38° ENE 23:10:38 10° N
Cosmos 1455 4.1 23:06:31 10° NE 23:07:32 11° ENE 23:08:32 10° E
Cosmos 2237 Rocket 2.9 23:05:21 10° N 23:10:22 32° ENE 23:15:21 10° ESE
Cosmos-2242 4.4 23:07:33 10° NNE 23:10:34 18° ENE 23:13:33 10° ESE
Cosmos 2333 Rocket 2.3 23:05:58 10° NNW 23:11:43 89° ENE 23:17:23 10° SSE
Cosmos 2184 Rocket 4.3 23:08:24 10° SSW 23:14:34 71° W 23:20:44 10° N
BREEZE-M DEB (TANK) 2.2 23:13:16 10° SW 23:15:55 55° SE 23:17:44 14° ENE
Cosmos 1461 3.1 23:12:19 10° NW 23:16:41 83° WSW 23:21:13 10° SSE
ATLAS CENTAUR R/B 4.3 23:12:48 10° W 23:17:48 44° NNW 23:30:45 10° NE
Meteor 1-24 Rocket 4.1 23:13:17 10° SSW 23:18:31 62° WNW 23:23:51 10° N
Cosmos 1602 Rocket 3.5 23:15:31 10° S 23:19:54 84° E 23:24:18 10° N
Cosmos 2154 Rocket 4.0 23:16:19 10° S 23:22:36 84° E 23:28:53 10° N
USA 267 4.4 23:17:10 10° NE 23:22:48 32° NNW 23:28:26 10° W
CSL-04 Rocket 4.2 23:18:30 10° SE 23:23:24 35° ENE 23:28:23 10° N
Cosmos 1939 Rocket 4.0 23:21:19 10° ESE 23:24:19 21° ENE 23:27:20 10° NNE
H-2A R/B 4.5 23:22:39 10° SSW 23:26:12 37° W 23:29:48 10° NNW
USA 32 4.1 23:24:17 10° SSE 23:29:20 54° E 23:34:26 10° NNE
ATLAS 5 CENTAUR R/B 4.1 23:27:29 10° WNW 23:30:01 15° NNW 23:32:42 10° N
SL-16 R/B 3.5 23:26:57 10° N 23:31:00 19° NE 23:33:09 16° ENE
Cosmos 1953 Rocket 4.5 23:27:57 10° SSE 23:31:45 28° E 23:35:33 10° NNE
COSMO-SKYMED 1 2.5 23:27:52 10° NNE 23:32:13 72° ESE 23:36:32 10° S
DELTA 2 R/B (1) 3.9 23:27:19 10° WSW 23:32:48 61° SSE 23:37:07 17° E
Cosmos 2219 3.2 23:28:18 10° SSW 23:33:50 68° ESE 23:39:26 10° NNE
Cosmos 1758 Rocket 3.6 23:32:40 10° S 23:36:51 53° E 23:41:03 10° NNE
ISS -2.6 23:34:27 10° SSW 23:37:22 28° SE 23:38:38 21° E
FengYun 1-2 T 4.2 23:32:03 10° SSE 23:37:40 82° ENE 23:43:21 10° NNW
Okean-O 3.0 23:34:57 10° S 23:39:22 70° W 23:43:47 10° NNW
TIMED 4.5 23:42:55 10° NNW 23:47:19 87° WSW 23:51:41 10° SSE
Cosmos 1703 4.1 23:44:38 10° SSE 23:48:02 28° E 23:48:38 27° ENE
Cosmos 2297 Rocket 2.2 23:43:16 10° S 23:48:48 63° ESE 23:54:00 12° NNE
Cosmos 1125 Rocket 4.4 23:44:06 10° SW 23:49:06 48° WNW 23:54:09 10° N
Cosmos 2366 rocket 4.2 23:45:01 10° SSE 23:50:49 45° E 23:56:44 10° NNE
CZ-4 R/B 1.3 23:47:58 10° SSE 23:51:57 84° E 23:56:05 10° N
Cosmos 1980 3.6 23:46:58 10° NNW 23:52:41 73° ENE 23:58:21 10° SSE
